When you browse on this site, cookies collect data to enhance your experience and personalize the content and advertising you see.
Visit our Privacy Policy to learn more. By continuing to use the site, you agree to this use of cookies and data.

Meteo orario Bolshie Vorobevichi

Oggi, 16 Luglio, Giovedi

Tempo Temperatura Precipitazioni Vento Pressione Umidità
00:00 +13°C° 0 mm 1 m/s 745 mm Hg 83%
01:00 +13°C° 0 mm 1 m/s 745 mm Hg 84%
02:00 +13°C° 0 mm 1 m/s 745 mm Hg 85%
03:00 +13°C° 0 mm 1 m/s 745 mm Hg 87%
04:00 +13°C° 0 mm 1 m/s 745 mm Hg 89%
05:00 +12°C° 0 mm 0 m/s 745 mm Hg 91%
06:00 +15°C° 0 mm 1 m/s 745 mm Hg 86%
07:00 +18°C° 0 mm 1 m/s 745 mm Hg 81%
08:00 +20°C° 0 mm 1 m/s 745 mm Hg 76%
09:00 +21°C° 0.2 mm 1 m/s 745 mm Hg 71%
10:00 +22°C° 0.2 mm 1 m/s 745 mm Hg 65%
11:00 +24°C° 0.2 mm 1 m/s 745 mm Hg 60%
12:00 +24°C° 0.1 mm 1 m/s 745 mm Hg 58%
13:00 +25°C° 0.1 mm 1 m/s 745 mm Hg 55%
14:00 +25°C° 0.1 mm 1 m/s 744 mm Hg 53%
15:00 +25°C° 0.1 mm 1 m/s 744 mm Hg 55%
16:00 +25°C° 0.1 mm 1 m/s 744 mm Hg 57%
17:00 +24°C° 0.1 mm 1 m/s 744 mm Hg 59%
18:00 +23°C° 0.1 mm 1 m/s 744 mm Hg 66%
19:00 +20°C° 0.1 mm 2 m/s 744 mm Hg 73%
20:00 +18°C° 0.1 mm 2 m/s 744 mm Hg 80%
21:00 +17°C° 0 mm 2 m/s 744 mm Hg 82%
22:00 +16°C° 0 mm 2 m/s 744 mm Hg 84%
23:00 +15°C° 0 mm 2 m/s 744 mm Hg 87%

Domani, 17 Luglio, Venerdi

Tempo Temperatura Precipitazioni Vento Pressione Umidità
00:00 +15°C° 0.1 mm 2 m/s 744 mm Hg 88%
01:00 +15°C° 0.1 mm 2 m/s 745 mm Hg 89%
02:00 +14°C° 0.1 mm 2 m/s 745 mm Hg 90%
03:00 +14°C° 0 mm 2 m/s 745 mm Hg 90%
04:00 +14°C° 0 mm 2 m/s 745 mm Hg 90%
05:00 +14°C° 0 mm 2 m/s 745 mm Hg 90%
06:00 +15°C° 0 mm 2 m/s 745 mm Hg 86%
07:00 +17°C° 0 mm 2 m/s 745 mm Hg 81%
08:00 +19°C° 0 mm 2 m/s 746 mm Hg 76%
09:00 +20°C° 0 mm 2 m/s 746 mm Hg 71%
10:00 +22°C° 0 mm 3 m/s 746 mm Hg 66%
11:00 +24°C° 0 mm 3 m/s 746 mm Hg 61%
12:00 +25°C° 0.1 mm 3 m/s 746 mm Hg 59%
13:00 +25°C° 0.1 mm 3 m/s 746 mm Hg 58%
14:00 +26°C° 0.1 mm 3 m/s 746 mm Hg 56%
15:00 +25°C° 0.2 mm 3 m/s 746 mm Hg 59%
16:00 +25°C° 0.2 mm 3 m/s 746 mm Hg 61%
17:00 +25°C° 0.2 mm 2 m/s 746 mm Hg 63%
18:00 +23°C° 0.1 mm 2 m/s 746 mm Hg 68%
19:00 +21°C° 0.1 mm 2 m/s 746 mm Hg 73%
20:00 +19°C° 0.1 mm 2 m/s 746 mm Hg 78%
21:00 +18°C° 0 mm 2 m/s 747 mm Hg 81%
22:00 +17°C° 0 mm 3 m/s 747 mm Hg 84%
23:00 +16°C° 0 mm 3 m/s 747 mm Hg 87%

Dopodomani, 18 Luglio, Sabato

Tempo Temperatura Precipitazioni Vento Pressione Umidità
00:00 +16°C° 0 mm 3 m/s 747 mm Hg 89%
01:00 +15°C° 0 mm 2 m/s 747 mm Hg 91%
02:00 +15°C° 0 mm 2 m/s 748 mm Hg 92%
03:00 +15°C° 0 mm 2 m/s 748 mm Hg 93%
04:00 +15°C° 0 mm 2 m/s 748 mm Hg 94%
05:00 +15°C° 0 mm 2 m/s 748 mm Hg 95%
06:00 +16°C° 0 mm 3 m/s 748 mm Hg 90%
07:00 +18°C° 0 mm 3 m/s 748 mm Hg 85%
08:00 +20°C° 0 mm 3 m/s 748 mm Hg 80%
09:00 +21°C° 0.1 mm 3 m/s 749 mm Hg 76%
10:00 +24°C° 0.1 mm 3 m/s 749 mm Hg 71%
11:00 +25°C° 0.1 mm 3 m/s 749 mm Hg 67%
12:00 +25°C° 0.4 mm 3 m/s 749 mm Hg 66%
13:00 +26°C° 0.4 mm 3 m/s 749 mm Hg 64%
14:00 +26°C° 0.4 mm 3 m/s 748 mm Hg 63%
15:00 +26°C° 0.3 mm 3 m/s 748 mm Hg 65%
16:00 +26°C° 0.3 mm 3 m/s 748 mm Hg 66%
17:00 +26°C° 0.3 mm 3 m/s 748 mm Hg 68%
18:00 +24°C° 0.1 mm 3 m/s 748 mm Hg 73%
19:00 +23°C° 0.1 mm 2 m/s 748 mm Hg 77%
20:00 +20°C° 0.1 mm 2 m/s 748 mm Hg 82%
21:00 +19°C° 0 mm 2 m/s 748 mm Hg 85%
22:00 +18°C° 0 mm 2 m/s 748 mm Hg 87%
23:00 +17°C° 0 mm 2 m/s 749 mm Hg 90%

19 Luglio, Domenica

Tempo Temperatura Precipitazioni Vento Pressione Umidità
00:00 +17°C° 0 mm 2 m/s 749 mm Hg 90%
01:00 +16°C° 0 mm 2 m/s 748 mm Hg 91%
02:00 +16°C° 0 mm 2 m/s 748 mm Hg 91%
03:00 +16°C° 0 mm 2 m/s 748 mm Hg 91%
04:00 +15°C° 0 mm 2 m/s 748 mm Hg 92%
05:00 +15°C° 0 mm 2 m/s 748 mm Hg 92%
06:00 +17°C° 0 mm 2 m/s 748 mm Hg 88%
07:00 +18°C° 0 mm 3 m/s 748 mm Hg 84%
08:00 +20°C° 0 mm 3 m/s 748 mm Hg 80%
09:00 +21°C° 0 mm 3 m/s 748 mm Hg 75%
10:00 +24°C° 0 mm 3 m/s 748 mm Hg 70%
11:00 +25°C° 0 mm 3 m/s 748 mm Hg 65%
12:00 +25°C° 0 mm 3 m/s 748 mm Hg 62%
13:00 +26°C° 0 mm 4 m/s 748 mm Hg 60%
14:00 +27°C° 0 mm 4 m/s 747 mm Hg 57%
15:00 +26°C° 0 mm 3 m/s 747 mm Hg 58%
16:00 +26°C° 0 mm 3 m/s 747 mm Hg 60%
17:00 +26°C° 0 mm 3 m/s 747 mm Hg 61%
18:00 +24°C° 0 mm 3 m/s 747 mm Hg 66%
19:00 +23°C° 0 mm 2 m/s 747 mm Hg 72%
20:00 +20°C° 0 mm 2 m/s 746 mm Hg 77%
21:00 +19°C° 0 mm 2 m/s 747 mm Hg 79%
22:00 +18°C° 0 mm 2 m/s 747 mm Hg 80%
23:00 +17°C° 0 mm 2 m/s 747 mm Hg 82%

20 Luglio, Lunedi

Tempo Temperatura Precipitazioni Vento Pressione Umidità
00:00 +17°C° 0 mm 2 m/s 746 mm Hg 83%
01:00 +16°C° 0 mm 2 m/s 746 mm Hg 84%
02:00 +16°C° 0 mm 2 m/s 746 mm Hg 86%
03:00 +16°C° 0 mm 2 m/s 746 mm Hg 87%
04:00 +15°C° 0 mm 2 m/s 746 mm Hg 89%
05:00 +15°C° 0 mm 2 m/s 746 mm Hg 90%
06:00 +17°C° 0 mm 2 m/s 746 mm Hg 85%
07:00 +19°C° 0 mm 2 m/s 746 mm Hg 80%
08:00 +20°C° 0 mm 2 m/s 746 mm Hg 75%
09:00 +23°C° 0.1 mm 2 m/s 745 mm Hg 71%
10:00 +24°C° 0.1 mm 2 m/s 745 mm Hg 67%
11:00 +25°C° 0.1 mm 2 m/s 745 mm Hg 63%
12:00 +25°C° 0.2 mm 2 m/s 745 mm Hg 62%
13:00 +26°C° 0.2 mm 2 m/s 744 mm Hg 60%
14:00 +26°C° 0.2 mm 2 m/s 744 mm Hg 59%
15:00 +26°C° 0 mm 2 m/s 744 mm Hg 58%
16:00 +26°C° 0 mm 2 m/s 744 mm Hg 58%
17:00 +26°C° 0 mm 2 m/s 743 mm Hg 57%
18:00 +24°C° 0.1 mm 1 m/s 743 mm Hg 64%
19:00 +23°C° 0.1 mm 1 m/s 743 mm Hg 70%
20:00 +21°C° 0.1 mm 1 m/s 743 mm Hg 76%
21:00 +20°C° 0 mm 1 m/s 743 mm Hg 79%
22:00 +19°C° 0 mm 1 m/s 743 mm Hg 82%
23:00 +18°C° 0 mm 1 m/s 743 mm Hg 85%

21 Luglio, Martedi

Tempo Temperatura Precipitazioni Vento Pressione Umidità
00:00 +16°C° 0 mm 1 m/s 743 mm Hg 85%
01:00 +15°C° 0 mm 0 m/s 743 mm Hg 86%
02:00 +15°C° 0 mm 0 m/s 743 mm Hg 86%
03:00 +15°C° 0 mm 0 m/s 742 mm Hg 86%
04:00 +14°C° 0 mm 0 m/s 742 mm Hg 86%
05:00 +14°C° 0 mm 0 m/s 742 mm Hg 86%
06:00 +16°C° 0 mm 0 m/s 742 mm Hg 81%
07:00 +18°C° 0 mm 0 m/s 742 mm Hg 76%
08:00 +20°C° 0 mm 0 m/s 742 mm Hg 71%
09:00 +23°C° 0 mm 1 m/s 742 mm Hg 67%
10:00 +25°C° 0 mm 1 m/s 742 mm Hg 62%
11:00 +26°C° 0 mm 2 m/s 741 mm Hg 58%
12:00 +26°C° 0.3 mm 3 m/s 741 mm Hg 62%
13:00 +25°C° 0.3 mm 4 m/s 741 mm Hg 65%
14:00 +25°C° 0.3 mm 5 m/s 741 mm Hg 68%
15:00 +23°C° 0.3 mm 5 m/s 741 mm Hg 71%
16:00 +22°C° 0.3 mm 5 m/s 741 mm Hg 74%
17:00 +21°C° 0.3 mm 5 m/s 741 mm Hg 77%
18:00 +20°C° 0 mm 6 m/s 742 mm Hg 78%
19:00 +17°C° 0 mm 6 m/s 742 mm Hg 80%
20:00 +16°C° 0 mm 6 m/s 742 mm Hg 81%
21:00 +15°C° 0 mm 6 m/s 743 mm Hg 80%
22:00 +14°C° 0 mm 5 m/s 743 mm Hg 78%
23:00 +13°C° 0 mm 5 m/s 744 mm Hg 77%
Mostrare altro